Waarnemingen

Advertentie
Mijn weer
Florennes, België (6456): temperatuur & dauwpunt: 13.08.2019 22:00:00 - 19.08.2019 22:00:00 (CEST)Florennes, België (6456): windsnelheid & windstoten: 13.08.2019 22:00:00 - 19.08.2019 22:00:00 (CEST)Florennes, België (6456): windrichting: 13.08.2019 22:00:00 - 19.08.2019 22:00:00 (CEST)Florennes, België (6456): luchtdruk: 13.08.2019 22:00:00 - 19.08.2019 22:00:00 (CEST)Florennes, België (6456): zicht: 13.08.2019 22:00:00 - 19.08.2019 22:00:00 (CEST)
Datum & Tijd tt [°C] td [°C] ff [km/u] ff [kn] fx [km/u] fx [kn] dd ppp [hPa] vv [km]
19.08.2019 22:00:00 14,9 10,6 7 4 14 8 ZW 1020,6 20
19.08.2019 21:00:00 16,1 11,0 11 6 18 10 W 1019,7 20
19.08.2019 20:00:00 17,8 9,1 11 6 - - ZW 1018,7 20
19.08.2019 19:00:00 19,2 8,8 18 10 32 18 ZW 1018,5 20
19.08.2019 18:00:00 19,8 9,3 18 10 32 18 ZW 1018,2 20
19.08.2019 17:00:00 19,5 9,1 22 12 - - ZZW 1018,2 20
19.08.2019 16:00:00 20,1 10,0 18 10 36 19 ZW 1018,1 20
19.08.2019 15:00:00 18,6 10,5 22 12 43 23 WZW 1018,1 20
19.08.2019 14:00:00 19,0 9,2 25 14 - - ZW 1017,7 20
19.08.2019 13:00:00 18,4 9,4 25 14 36 19 ZW 1017,6 20
19.08.2019 12:00:00 17,4 9,2 22 12 32 18 ZW 1017,3 20
19.08.2019 11:00:00 16,2 10,2 22 12 - - ZW 1017,2 20
19.08.2019 10:00:00 15,0 11,3 14 8 29 16 WZW 1016,7 20
19.08.2019 09:00:00 13,6 11,0 14 8 22 12 ZW 1016,8 20
19.08.2019 08:00:00 11,9 9,9 14 8 - - ZZW 1016,8 20
19.08.2019 07:00:00 11,3 9,6 11 6 18 10 ZW 1016,4 20
19.08.2019 06:00:00 - - - - - - - - -
19.08.2019 05:00:00 - - - - - - - - -
19.08.2019 04:00:00 - - - - - - - - -
19.08.2019 03:00:00 - - - - - - - - -
19.08.2019 02:00:00 - - - - - - - - -
19.08.2019 01:00:00 - - - - - - - - -
19.08.2019 00:00:00 - - - - - - - - -
18.08.2019 23:00:00 - - - - - - - - -
18.08.2019 22:00:00 - - - - - - - - -
18.08.2019 21:00:00 - - - - - - - - -
18.08.2019 20:00:00 - - - - - - - - -
18.08.2019 19:00:00 - - - - - - - - -
18.08.2019 18:00:00 - - - - - - - - -
18.08.2019 17:00:00 - - - - - - - - -
18.08.2019 16:00:00 - - - - - - - - -
18.08.2019 15:00:00 - - - - - - - - -
18.08.2019 14:00:00 - - - - - - - - -
18.08.2019 13:00:00 - - - - - - - - -
18.08.2019 12:00:00 - - - - - - - - -
18.08.2019 11:00:00 - - - - - - - - -
18.08.2019 10:00:00 - - - - - - - - -
18.08.2019 09:00:00 - - - - - - - - -
18.08.2019 08:00:00 - - - - - - - - -
18.08.2019 07:00:00 - - - - - - - - -
18.08.2019 06:00:00 - - - - - - - - -
18.08.2019 05:00:00 - - - - - - - - -
18.08.2019 04:00:00 - - - - - - - - -
18.08.2019 03:00:00 - - - - - - - - -
18.08.2019 02:00:00 - - - - - - - - -
18.08.2019 01:00:00 - - - - - - - - -
18.08.2019 00:00:00 - - - - - - - - -
17.08.2019 23:00:00 - - - - - - - - -
17.08.2019 22:00:00 - - - - - - - - -
17.08.2019 21:00:00 - - - - - - - - -
17.08.2019 20:00:00 - - - - - - - - -
17.08.2019 19:00:00 - - - - - - - - -
17.08.2019 18:00:00 - - - - - - - - -
17.08.2019 17:00:00 - - - - - - - - -
17.08.2019 16:00:00 - - - - - - - - -
17.08.2019 15:00:00 - - - - - - - - -
17.08.2019 14:00:00 - - - - - - - - -
17.08.2019 13:00:00 - - - - - - - - -
17.08.2019 12:00:00 - - - - - - - - -
17.08.2019 11:00:00 - - - - - - - - -
17.08.2019 10:00:00 - - - - - - - - -
17.08.2019 09:00:00 - - - - - - - - -
17.08.2019 08:00:00 - - - - - - - - -
17.08.2019 07:00:00 - - - - - - - - -
17.08.2019 06:00:00 - - - - - - - - -
17.08.2019 05:00:00 - - - - - - - - -
17.08.2019 04:00:00 - - - - - - - - -
17.08.2019 03:00:00 - - - - - - - - -
17.08.2019 02:00:00 - - - - - - - - -
17.08.2019 01:00:00 - - - - - - - - -
17.08.2019 00:00:00 - - - - - - - - -
16.08.2019 23:00:00 - - - - - - - - -
16.08.2019 22:00:00 - - - - - - - - -
16.08.2019 21:00:00 - - - - - - - - -
16.08.2019 20:00:00 - - - - - - - - -
16.08.2019 19:00:00 - - - - - - - - -
16.08.2019 18:00:00 - - - - - - - - -
16.08.2019 17:00:00 - - - - - - - - -
16.08.2019 16:00:00 - - - - - - - - -
16.08.2019 15:00:00 - - - - - - - - -
16.08.2019 14:00:00 - - - - - - - - -
16.08.2019 13:00:00 - - - - - - - - -
16.08.2019 12:00:00 - - - - - - - - -
16.08.2019 11:00:00 - - - - - - - - -
16.08.2019 10:00:00 - - - - - - - - -
16.08.2019 09:00:00 - - - - - - - - -
16.08.2019 08:00:00 - - - - - - - - -
16.08.2019 07:00:00 - - - - - - - - -
16.08.2019 06:00:00 - - - - - - - - -
16.08.2019 05:00:00 - - - - - - - - -
16.08.2019 04:00:00 - - - - - - - - -
16.08.2019 03:00:00 - - - - - - - - -
16.08.2019 02:00:00 - - - - - - - - -
16.08.2019 01:00:00 - - - - - - - - -
16.08.2019 00:00:00 - - - - - - - - -
15.08.2019 23:00:00 - - - - - - - - -
15.08.2019 22:00:00 - - - - - - - - -
15.08.2019 21:00:00 - - - - - - - - -
15.08.2019 20:00:00 - - - - - - - - -
15.08.2019 19:00:00 - - - - - - - - -
15.08.2019 18:00:00 - - - - - - - - -
15.08.2019 17:00:00 - - - - - - - - -
15.08.2019 16:00:00 - - - - - - - - -
15.08.2019 15:00:00 - - - - - - - - -
15.08.2019 14:00:00 - - - - - - - - -
15.08.2019 13:00:00 - - - - - - - - -
15.08.2019 12:00:00 - - - - - - - - -
15.08.2019 11:00:00 - - - - - - - - -
15.08.2019 10:00:00 - - - - - - - - -
15.08.2019 09:00:00 - - - - - - - - -
15.08.2019 08:00:00 - - - - - - - - -
15.08.2019 07:00:00 - - - - - - - - -
15.08.2019 06:00:00 - - - - - - - - -
15.08.2019 05:00:00 - - - - - - - - -
15.08.2019 04:00:00 - - - - - - - - -
15.08.2019 03:00:00 - - - - - - - - -
15.08.2019 02:00:00 - - - - - - - - -
15.08.2019 01:00:00 - - - - - - - - -
15.08.2019 00:00:00 - - - - - - - - -
14.08.2019 23:00:00 - - - - - - - - -
14.08.2019 22:00:00 - - - - - - - - -
14.08.2019 21:00:00 - - - - - - - - -
14.08.2019 20:00:00 - - - - - - - - -
14.08.2019 19:00:00 - - - - - - - - -
14.08.2019 18:00:00 - - - - - - - - -
14.08.2019 17:00:00 - - - - - - - - -
14.08.2019 16:00:00 19,9 10,7 18 10 32 18 Z 1016,6 20
14.08.2019 15:00:00 19,8 10,0 18 10 32 18 ZZW 1017,3 20
14.08.2019 14:00:00 19,4 10,2 22 12 - - Z 1010,2 20
14.08.2019 13:00:00 18,4 10,1 18 10 25 14 Z 1018,1 20
14.08.2019 12:00:00 16,7 10,4 18 10 25 14 Z 1018,9 20
14.08.2019 11:00:00 14,6 11,8 11 6 - - Z 1019,6 15
14.08.2019 10:00:00 11,2 11,2 43 23 14 8 N 1020,2 0,4
14.08.2019 09:00:00 10,4 10,3 7 4 14 8 ZZO 1020,3 0,3
14.08.2019 08:00:00 10,0 10,0 8 4 - - ZZO - 0,4
14.08.2019 07:00:00 9,6 9,5 11 6 11 6 ZZO 1020,2 0,2
14.08.2019 06:00:00 - - - - - - - - -
14.08.2019 05:00:00 - - - - - - - - -
14.08.2019 04:00:00 - - - - - - - - -
14.08.2019 03:00:00 - - - - - - - - -
14.08.2019 02:00:00 - - - - - - - - -
14.08.2019 01:00:00 - - - - - - - - -
14.08.2019 00:00:00 - - - - - - - - -
13.08.2019 23:00:00 - - - - - - - - -
13.08.2019 22:00:00 - - - - - - - - -

tt = temperatuur
td = dauwpunt
ff = windsnelheid
fx = windstoten
dd = windrichting
ppp = luchtdruk
vv = zicht

Weerstations in de omgeving